{"data":{"norad_id":62179,"intl_designator":"2024-225S","name":"STARLINK-32584","alt_names":[],"object_type":"PAYLOAD","status":"ACTIVE","operator":null,"country":"US","launch_date":"2024-11-30","launch_site_code":"AFWTR","launch_vehicle":null,"mission":null,"orbit_class":"UNKNOWN","rcs_meters":null,"size_class":null,"mass_kg":null,"dimensions":null,"purposes":["comms"],"wikipedia_slug":null,"has_3d_model":false,"image_url":null,"decayed_at":null,"tle_current":{"epoch":"2026-09-21T22:00:03.000096Z","epoch_age_seconds":55511,"freshness":"FRESH","line1":"1 62179U 24225S   26264.91670139  .00007740  00000+0  60235-3 0  9992","line2":"2 62179  70.0006  29.6044 0004120 312.3014 225.4665 15.01601240  5720","mean_motion":15.0160124,"eccentricity":0.000412,"inclination_deg":70.0006,"raan_deg":29.6044,"arg_perigee_deg":312.3014,"mean_anomaly_deg":225.4665,"bstar":0.00060235,"rev_number":572,"period_min":95.897629919379,"perigee_km":559.09890114465,"apogee_km":564.81753960624,"semimajor_km":6940.0952203754,"source":"CELESTRAK","updated_at":"2026-09-22T09:00:49.537437Z"}}}